When you browse on this site, cookies collect data to enhance your experience and personalize the content and advertising you see.
Visit our Privacy Policy to learn more. By continuing to use the site, you agree to this use of cookies and data.
  • In Romania
  • List of Countries
  • For 7 days
  • Water Temperature
  • Weather Map
  • Weather Widgets
  • user-avatar
    Login

    Hourly Weather Vysokoe

    Today, 15 October, Tuesday

    Time Temperature Precipitation Wind Pressure Humidity
    00:00 +15°C° 0 mm 7 mps 742 mmHg 81%
    01:00 +14°C° 0 mm 6 mps 742 mmHg 83%
    02:00 +14°C° 0 mm 6 mps 742 mmHg 85%
    03:00 +13°C° 0 mm 6 mps 742 mmHg 88%
    04:00 +13°C° 0 mm 5 mps 742 mmHg 90%
    05:00 +13°C° 0 mm 5 mps 742 mmHg 92%
    06:00 +12°C° 0 mm 5 mps 743 mmHg 93%
    07:00 +12°C° 0 mm 5 mps 743 mmHg 90%
    08:00 +11°C° 0 mm 6 mps 744 mmHg 86%
    09:00 +11°C° 0 mm 6 mps 744 mmHg 83%
    10:00 +13°C° 0 mm 6 mps 745 mmHg 78%
    11:00 +14°C° 0 mm 5 mps 746 mmHg 73%
    12:00 +14°C° 0 mm 5 mps 746 mmHg 69%
    13:00 +14°C° 0 mm 5 mps 747 mmHg 69%
    14:00 +13°C° 0 mm 5 mps 747 mmHg 69%
    15:00 +12°C° 0 mm 5 mps 748 mmHg 70%
    16:00 +11°C° 0 mm 4 mps 748 mmHg 71%
    17:00 +10°C° 0 mm 4 mps 749 mmHg 73%
    18:00 +9°C° 0 mm 3 mps 749 mmHg 75%
    19:00 +8°C° 0 mm 3 mps 750 mmHg 76%
    20:00 +8°C° 0 mm 3 mps 750 mmHg 78%
    21:00 +7°C° 0 mm 2 mps 751 mmHg 79%
    22:00 +6°C° 0 mm 2 mps 751 mmHg 81%
    23:00 +6°C° 0 mm 2 mps 752 mmHg 82%

    Tomorrow, 16 October, Wednesday

    Time Temperature Precipitation Wind Pressure Humidity
    00:00 +5°C° 0 mm 2 mps 752 mmHg 83%
    01:00 +5°C° 0 mm 2 mps 752 mmHg 83%
    02:00 +4°C° 0 mm 2 mps 753 mmHg 84%
    03:00 +4°C° 0 mm 2 mps 753 mmHg 85%
    04:00 +3°C° 0 mm 2 mps 753 mmHg 87%
    05:00 +3°C° 0 mm 2 mps 753 mmHg 89%
    06:00 +3°C° 0 mm 2 mps 753 mmHg 92%
    07:00 +2°C° 0 mm 3 mps 753 mmHg 87%
    08:00 +3°C° 0 mm 3 mps 753 mmHg 83%
    09:00 +3°C° 0 mm 3 mps 754 mmHg 79%
    10:00 +5°C° 0 mm 4 mps 754 mmHg 75%
    11:00 +6°C° 0 mm 4 mps 753 mmHg 72%
    12:00 +7°C° 0 mm 4 mps 753 mmHg 68%
    13:00 +8°C° 0 mm 4 mps 753 mmHg 68%
    14:00 +8°C° 0 mm 4 mps 753 mmHg 68%
    15:00 +10°C° 0 mm 4 mps 752 mmHg 68%
    16:00 +8°C° 0 mm 4 mps 752 mmHg 71%
    17:00 +8°C° 0 mm 4 mps 751 mmHg 74%
    18:00 +7°C° 0 mm 4 mps 751 mmHg 77%
    19:00 +7°C° 0 mm 4 mps 751 mmHg 77%
    20:00 +7°C° 0 mm 5 mps 750 mmHg 77%
    21:00 +7°C° 0 mm 5 mps 750 mmHg 77%
    22:00 +7°C° 0 mm 5 mps 750 mmHg 78%
    23:00 +7°C° 0 mm 5 mps 750 mmHg 79%

    Day after tomorrow, 17 October, Thursday

    Time Temperature Precipitation Wind Pressure Humidity
    00:00 +7°C° 0 mm 6 mps 749 mmHg 80%
    01:00 +7°C° 0 mm 5 mps 749 mmHg 82%
    02:00 +7°C° 0 mm 5 mps 749 mmHg 83%
    03:00 +7°C° 0 mm 5 mps 749 mmHg 85%
    04:00 +7°C° 0 mm 5 mps 748 mmHg 86%
    05:00 +7°C° 0 mm 5 mps 748 mmHg 87%
    06:00 +7°C° 0 mm 5 mps 747 mmHg 88%
    07:00 +8°C° 0 mm 5 mps 747 mmHg 88%
    08:00 +8°C° 0 mm 6 mps 747 mmHg 87%
    09:00 +9°C° 0 mm 6 mps 747 mmHg 87%
    10:00 +10°C° 0 mm 6 mps 747 mmHg 82%
    11:00 +13°C° 0 mm 5 mps 747 mmHg 78%
    12:00 +14°C° 0 mm 5 mps 746 mmHg 73%
    13:00 +15°C° 0 mm 5 mps 746 mmHg 71%
    14:00 +15°C° 0 mm 5 mps 746 mmHg 69%
    15:00 +16°C° 0 mm 5 mps 746 mmHg 67%
    16:00 +15°C° 0 mm 4 mps 745 mmHg 72%
    17:00 +14°C° 0 mm 4 mps 745 mmHg 77%
    18:00 +13°C° 0 mm 3 mps 745 mmHg 82%
    19:00 +12°C° 0 mm 3 mps 745 mmHg 84%
    20:00 +12°C° 0 mm 3 mps 745 mmHg 86%
    21:00 +12°C° 0 mm 3 mps 745 mmHg 88%
    22:00 +11°C° 0.2 mm 3 mps 745 mmHg 88%
    23:00 +11°C° 0.2 mm 3 mps 745 mmHg 88%

    18 October, Friday

    Time Temperature Precipitation Wind Pressure Humidity
    00:00 +11°C° 0.2 mm 3 mps 744 mmHg 88%
    01:00 +11°C° 0 mm 3 mps 744 mmHg 90%
    02:00 +10°C° 0 mm 3 mps 744 mmHg 91%
    03:00 +10°C° 0 mm 2 mps 744 mmHg 92%
    04:00 +10°C° 0 mm 2 mps 744 mmHg 92%
    05:00 +9°C° 0 mm 2 mps 744 mmHg 92%
    06:00 +9°C° 0 mm 2 mps 744 mmHg 93%
    07:00 +10°C° 0.1 mm 2 mps 744 mmHg 92%
    08:00 +10°C° 0.1 mm 2 mps 745 mmHg 91%
    09:00 +10°C° 0.1 mm 2 mps 745 mmHg 90%
    10:00 +12°C° 0 mm 2 mps 745 mmHg 86%
    11:00 +13°C° 0 mm 2 mps 745 mmHg 83%
    12:00 +14°C° 0 mm 2 mps 746 mmHg 79%
    13:00 +14°C° 0.1 mm 2 mps 746 mmHg 77%
    14:00 +14°C° 0.1 mm 2 mps 746 mmHg 76%
    15:00 +15°C° 0.1 mm 2 mps 746 mmHg 75%
    16:00 +14°C° 0.1 mm 2 mps 747 mmHg 79%
    17:00 +13°C° 0.1 mm 2 mps 747 mmHg 83%
    18:00 +12°C° 0.1 mm 2 mps 747 mmHg 88%
    19:00 +10°C° 0.1 mm 2 mps 747 mmHg 89%
    20:00 +10°C° 0.1 mm 2 mps 748 mmHg 90%
    21:00 +10°C° 0.1 mm 2 mps 748 mmHg 91%
    22:00 +9°C° 0.1 mm 2 mps 748 mmHg 91%
    23:00 +9°C° 0.1 mm 2 mps 748 mmHg 92%

    19 October, Saturday

    Time Temperature Precipitation Wind Pressure Humidity
    00:00 +10°C° 0.1 mm 1 mps 748 mmHg 92%
    01:00 +10°C° 0.1 mm 1 mps 749 mmHg 92%
    02:00 +9°C° 0.1 mm 1 mps 749 mmHg 92%
    03:00 +9°C° 0.1 mm 1 mps 749 mmHg 92%
    04:00 +9°C° 0 mm 1 mps 749 mmHg 93%
    05:00 +9°C° 0 mm 1 mps 749 mmHg 93%
    06:00 +9°C° 0 mm 1 mps 750 mmHg 94%
    07:00 +9°C° 0 mm 1 mps 750 mmHg 92%
    08:00 +9°C° 0 mm 1 mps 750 mmHg 90%
    09:00 +9°C° 0 mm 1 mps 750 mmHg 89%
    10:00 +10°C° 0 mm 1 mps 751 mmHg 86%
    11:00 +11°C° 0 mm 1 mps 751 mmHg 83%
    12:00 +11°C° 0 mm 1 mps 751 mmHg 79%
    13:00 +12°C° 0 mm 1 mps 751 mmHg 78%
    14:00 +12°C° 0 mm 1 mps 751 mmHg 77%
    15:00 +12°C° 0 mm 1 mps 751 mmHg 76%
    16:00 +12°C° 0 mm 1 mps 751 mmHg 78%
    17:00 +11°C° 0 mm 1 mps 751 mmHg 81%
    18:00 +10°C° 0 mm 1 mps 752 mmHg 83%
    19:00 +10°C° 0 mm 1 mps 752 mmHg 84%
    20:00 +10°C° 0 mm 1 mps 752 mmHg 86%
    21:00 +9°C° 0 mm 1 mps 752 mmHg 87%
    22:00 +9°C° 0 mm 1 mps 752 mmHg 88%
    23:00 +9°C° 0 mm 1 mps 752 mmHg 90%

    20 October, Sunday

    Time Temperature Precipitation Wind Pressure Humidity
    00:00 +8°C° 0 mm 1 mps 752 mmHg 91%
    01:00 +8°C° 0 mm 1 mps 753 mmHg 92%
    02:00 +8°C° 0 mm 1 mps 753 mmHg 93%
    03:00 +6°C° 0 mm 2 mps 753 mmHg 94%
    04:00 +6°C° 0 mm 2 mps 753 mmHg 94%
    05:00 +7°C° 0 mm 1 mps 753 mmHg 94%
    06:00 +7°C° 0 mm 1 mps 753 mmHg 94%
    07:00 +6°C° 0 mm 2 mps 753 mmHg 93%
    08:00 +7°C° 0 mm 2 mps 753 mmHg 92%
    09:00 +7°C° 0 mm 2 mps 753 mmHg 90%
    10:00 +8°C° 0 mm 2 mps 753 mmHg 86%
    11:00 +10°C° 0 mm 3 mps 754 mmHg 82%
    12:00 +11°C° 0 mm 3 mps 754 mmHg 77%
    13:00 +11°C° 0 mm 3 mps 753 mmHg 76%
    14:00 +11°C° 0 mm 3 mps 753 mmHg 76%
    15:00 +12°C° 0 mm 3 mps 753 mmHg 75%
    16:00 +11°C° 0 mm 3 mps 753 mmHg 79%
    17:00 +10°C° 0 mm 3 mps 753 mmHg 83%
    18:00 +9°C° 0 mm 3 mps 753 mmHg 88%
    19:00 +8°C° 0 mm 3 mps 753 mmHg 89%
    20:00 +8°C° 0 mm 3 mps 753 mmHg 90%
    21:00 +8°C° 0 mm 3 mps 753 mmHg 91%
    22:00 +7°C° 0 mm 3 mps 753 mmHg 91%
    23:00 +7°C° 0 mm 3 mps 753 mmHg 92%
    Show more